Location: Maiden
(35.5760°N, 81.2120°W)
Time: 03:23:43
(UTC-04:00)

Cosmos 405 - Pass Details

Date: 02 August 2020
Orbit: 450 x 465 km, 81.3° (Epoch: 11 August)

Event Time Altitude Azimuth Distance (km) Brightness Sun altitude
Rises 21:16:16 0° 2° (N) 2,466 7.1 -9.8°
Reaches altitude 10° 21:18:30 10° 12° (NNE) 1,587 5.9 -10.2°
Maximum altitude 21:21:39 32° 78° (ENE) 792 3.8 -10.7°
Enters shadow 21:23:50 16° 134° (SE) 1,235 4.5 -11.1°
